Flag for Canada Weather past 2 weeks in Eureka, Nunavut, Canada

Now
52 °F

Broken clouds.


Feels Like: 50 °F
Forecast: N/A
Wind: 6 mph from Southwest

Location: Eureka

Current Time: Jul 4, 2015 at 4:03:43 PM

Latest Report: Jul 4, 2015 at 3:00 PM


Visibility: 15 mi

Pressure: 30.09 "Hg

Humidity: 67%

Dew point: 41 °F

Location of EurekaLocation

Historic Weather in Eureka — Graph

°F

Eureka temperature yesterday

Maximum temperature yesterday: 46 °F (at 5:00 PM)
Minimum temperature yesterday: 39 °F (at 3:00 AM)
Average temperature yesterday: 43 °F

Past Weeks' High & Low Weather Summary

 TemperatureHumidityPressure
High57 °F (Jun 28, 3:00 PM)100% (Jul 3, 1:00 PM)30.13 "Hg (Jul 3, 1:00 PM)
Low37 °F (Jun 20, 2:00 AM)38% (Jun 24, 2:00 AM)29.64 "Hg (Jun 19, 2:00 PM)
Average45 °F63%29.91 "Hg
* Reported Jun 19 2:00 PM — Jul 4 2:00 PM, Eureka, Weather by CustomWeather, © 2015

Note: Actual official high and low records may vary slightly from our data, if they occured in-between our weather recording intervals... More about our weather records

Advertising

Eureka weather history for previous 24 hours

 ConditionsComfort  
Time TempWeatherWind HumidityBarometerVisibility
2:00 PM
Sat, Jul 4
55 °FPartly sunny.5 mph59%30.10 "Hg15 mi
1:00 PM54 °FPartly sunny.6 mph63%30.10 "Hg15 mi
12:00 PM50 °FPartly sunny.8 mph67%30.11 "Hg15 mi
11:00 AM50 °FPartly sunny.7 mph67%30.11 "Hg15 mi
10:00 AM52 °FPassing clouds.9 mph67%30.12 "Hg15 mi
9:00 AM48 °FPassing clouds.9 mph71%30.12 "Hg15 mi
8:00 AM46 °FPassing clouds.8 mph76%30.13 "Hg15 mi
7:00 AM46 °FPartly sunny.8 mph76%30.13 "Hg15 mi
6:00 AM45 °FPartly sunny.13 mph76%30.13 "Hg15 mi
5:00 AM43 °FPartly sunny.12 mph87%30.12 "Hg15 mi
4:00 AM41 °FScattered clouds.14 mph87%30.12 "Hg15 mi
2:00 AM43 °FScattered clouds.16 mph81%30.10 "Hg15 mi
1:00 AM45 °FScattered clouds.15 mph81%30.09 "Hg15 mi
10:00 PM
Fri, Jul 3
45 °FPartly sunny.16 mph81%30.06 "Hg15 mi
9:00 PM45 °FPartly sunny.16 mph87%30.05 "Hg15 mi
8:00 PM46 °FLight rain. Partly sunny.16 mph82%30.03 "Hg15 mi
7:00 PM43 °FPartly sunny.12 mph87%30.01 "Hg15 mi
6:00 PM45 °FLight rain. Partly sunny.15 mph87%30.00 "Hg15 mi
5:00 PM46 °FLight rain. More clouds than sun.16 mph82%29.98 "Hg7 mi
4:00 PM45 °FLight rain. Fog.16 mph93%29.97 "Hg6 mi
Weather by CustomWeather, © 2015

See weather overviewHow to use our weather pages